AFL340 UUDD-ULLI

Flight info

Callsign AFL340
Flight time 1h 3m
Altitude 40000
Route SUNUN4P SUNUN M869 RAVKA N50 NUDKO T561 ODATI T875 GENPA GENPA1B
Aircraft B772/H-SDE2E3FGHIJ5LORVWXY/LB1D1

Departure

Time 2026-05-06 20:29
Airport Domodedovo International Airport (UUDD)

Arrival

Time 2026-05-06 21:33
Airport Pulkovo Airport (ULLI)
Time Latitude Longitude Altitude Speed Heading
2026-05-06 20:16 55.41140 37.89970 604 ft 0 kts 17°
2026-05-06 20:16 55.41137 37.89968 604 ft 2 kts 17°
2026-05-06 20:16 55.41123 37.89961 604 ft 2 kts 17°
2026-05-06 20:17 55.41108 37.89953 604 ft 2 kts 17°
2026-05-06 20:17 55.41094 37.89946 604 ft 2 kts 17°
2026-05-06 20:17 55.41080 37.89938 604 ft 2 kts 17°
2026-05-06 20:17 55.41065 37.89931 604 ft 2 kts 17°
2026-05-06 20:18 55.41051 37.89923 604 ft 2 kts 17°
2026-05-06 20:18 55.41037 37.89916 604 ft 2 kts 17°
2026-05-06 20:18 55.41022 37.89908 604 ft 2 kts 17°
2026-05-06 20:18 55.41008 37.89901 604 ft 2 kts 17°
2026-05-06 20:19 55.40993 37.89893 604 ft 2 kts 15°
2026-05-06 20:19 55.40979 37.89893 604 ft 2 kts 334°
2026-05-06 20:19 55.40967 37.89908 604 ft 2 kts 317°
2026-05-06 20:19 55.40956 37.89925 604 ft 2 kts 319°
2026-05-06 20:20 55.40947 37.89945 604 ft 2 kts 288°
2026-05-06 20:20 55.40945 37.89971 604 ft 2 kts 261°
2026-05-06 20:20 55.40950 37.89995 604 ft 2 kts 234°
2026-05-06 20:20 55.40959 37.90015 604 ft 2 kts 232°
2026-05-06 20:21 55.40963 37.90024 604 ft 0 kts 234°
2026-05-06 20:23 55.40962 37.90020 604 ft 1 kts 234°
2026-05-06 20:23 55.40951 37.89995 604 ft 4 kts 234°
2026-05-06 20:24 55.40936 37.89957 604 ft 7 kts 237°
2026-05-06 20:24 55.40900 37.89861 604 ft 11 kts 236°
2026-05-06 20:24 55.40873 37.89789 604 ft 8 kts 236°
2026-05-06 20:24 55.40832 37.89686 604 ft 11 kts 234°
2026-05-06 20:25 55.40765 37.89575 604 ft 14 kts 226°
2026-05-06 20:25 55.40714 37.89464 604 ft 12 kts 234°
2026-05-06 20:25 55.40637 37.89371 604 ft 15 kts 179°
2026-05-06 20:25 55.40533 37.89467 604 ft 18 kts 145°
2026-05-06 20:26 55.40421 37.89600 604 ft 20 kts 145°
2026-05-06 20:26 55.40297 37.89749 604 ft 22 kts 145°
2026-05-06 20:26 55.40161 37.89913 604 ft 24 kts 146°
2026-05-06 20:26 55.40013 37.90091 604 ft 26 kts 146°
2026-05-06 20:27 55.39854 37.90285 604 ft 28 kts 146°
2026-05-06 20:27 55.39724 37.90441 604 ft 13 kts 146°
2026-05-06 20:27 55.39659 37.90513 604 ft 10 kts 157°
2026-05-06 20:27 55.39583 37.90482 604 ft 13 kts 223°
2026-05-06 20:28 55.39549 37.90341 604 ft 12 kts 273°
2026-05-06 20:28 55.39572 37.90263 604 ft 2 kts 317°
2026-05-06 20:28 55.39595 37.90228 604 ft 6 kts 320°
2026-05-06 20:28 55.39680 37.90118 604 ft 46 kts 328°
2026-05-06 20:29 55.40275 37.89409 605 ft 153 kts 327°
2026-05-06 20:29 55.41333 37.88150 974 ft 207 kts 329°
2026-05-06 20:29 55.42441 37.86800 2416 ft 189 kts 324°
2026-05-06 20:29 55.43425 37.85533 3370 ft 173 kts 329°
2026-05-06 20:30 55.44438 37.84367 3884 ft 185 kts 327°
2026-05-06 20:30 55.46902 37.81364 4031 ft 241 kts 326°
2026-05-06 20:30 55.48306 37.79646 4025 ft 246 kts 326°
2026-05-06 20:31 55.49702 37.77933 4025 ft 247 kts 326°
2026-05-06 20:31 55.50959 37.75876 4014 ft 247 kts 303°
2026-05-06 20:31 55.51506 37.73076 4012 ft 249 kts 274°
2026-05-06 20:31 55.51164 37.70027 4493 ft 254 kts 247°
2026-05-06 20:32 55.50402 37.67359 5449 ft 242 kts 242°
2026-05-06 20:32 55.49562 37.64857 6183 ft 239 kts 240°
2026-05-06 20:32 55.48723 37.62423 6798 ft 241 kts 240°
2026-05-06 20:32 55.47851 37.59892 7403 ft 243 kts 240°
2026-05-06 20:33 55.46990 37.57375 8018 ft 244 kts 241°
2026-05-06 20:33 55.45964 37.54986 8570 ft 248 kts 225°
2026-05-06 20:33 55.44568 37.53069 8851 ft 263 kts 219°
2026-05-06 20:33 55.43031 37.51168 9128 ft 274 kts 218°
2026-05-06 20:34 55.41475 37.49257 9621 ft 275 kts 218°
2026-05-06 20:34 55.39904 37.47322 9991 ft 278 kts 218°
2026-05-06 20:34 55.38315 37.45360 10029 ft 282 kts 219°
2026-05-06 20:34 55.36721 37.43361 10490 ft 281 kts 219°
2026-05-06 20:35 55.35135 37.41390 11009 ft 280 kts 219°
2026-05-06 20:35 55.33558 37.39414 11400 ft 281 kts 222°
2026-05-06 20:35 55.32282 37.36832 11753 ft 279 kts 244°
2026-05-06 20:35 55.31662 37.33642 11850 ft 290 kts 263°
2026-05-06 20:36 55.31544 37.30031 12479 ft 303 kts 269°
2026-05-06 20:36 55.31503 37.26363 13478 ft 304 kts 269°
2026-05-06 20:36 55.31462 37.22630 14379 ft 309 kts 269°
2026-05-06 20:36 55.31426 37.19322 14840 ft 314 kts 268°
2026-05-06 20:37 55.31382 37.15500 14936 ft 314 kts 269°
2026-05-06 20:37 55.31496 37.11676 14927 ft 313 kts 281°
2026-05-06 20:37 55.32103 37.08252 15144 ft 328 kts 289°
2026-05-06 20:37 55.32917 37.04546 16178 ft 327 kts 289°
2026-05-06 20:38 55.33747 37.00868 16792 ft 326 kts 289°
2026-05-06 20:38 55.34583 36.97171 16928 ft 327 kts 289°
2026-05-06 20:38 55.35429 36.93427 16922 ft 326 kts 289°
2026-05-06 20:38 55.36251 36.89785 16946 ft 326 kts 289°
2026-05-06 20:39 55.37300 36.86248 16932 ft 328 kts 303°
2026-05-06 20:39 55.38895 36.83327 16931 ft 334 kts 319°
2026-05-06 20:39 55.40963 36.81322 17154 ft 355 kts 337°
2026-05-06 20:39 55.43386 36.80489 18186 ft 357 kts 350°
2026-05-06 20:40 55.45839 36.80135 19194 ft 356 kts 352°
2026-05-06 20:40 55.48318 36.79853 19873 ft 364 kts 353°
2026-05-06 20:40 55.50867 36.79583 20529 ft 371 kts 353°
2026-05-06 20:40 55.53442 36.79314 21236 ft 377 kts 353°
2026-05-06 20:41 55.56035 36.79044 21938 ft 382 kts 353°
2026-05-06 20:41 55.58661 36.78480 22631 ft 382 kts 344°
2026-05-06 20:41 55.61190 36.77058 23261 ft 383 kts 333°
2026-05-06 20:41 55.63541 36.74819 23593 ft 392 kts 323°
2026-05-06 20:42 55.65736 36.72121 23830 ft 407 kts 321°
2026-05-06 20:42 55.68060 36.69194 24064 ft 422 kts 321°
2026-05-06 20:42 55.70518 36.66099 24291 ft 438 kts 321°
2026-05-06 20:42 55.73006 36.62967 24636 ft 449 kts 321°
2026-05-06 20:43 55.75569 36.59744 25248 ft 455 kts 321°
2026-05-06 20:43 55.78150 36.56495 25898 ft 459 kts 321°
2026-05-06 20:43 55.80772 36.53189 26523 ft 464 kts 321°
2026-05-06 20:43 55.83400 36.49871 27120 ft 469 kts 321°
2026-05-06 20:44 55.86047 36.46525 27704 ft 474 kts 321°
2026-05-06 20:44 55.88757 36.43161 28274 ft 479 kts 323°
2026-05-06 20:44 55.91557 36.39893 28877 ft 483 kts 323°
2026-05-06 20:44 55.94336 36.36662 29476 ft 486 kts 323°
2026-05-06 20:45 55.97161 36.33366 30295 ft 485 kts 323°
2026-05-06 20:45 55.99996 36.30051 31284 ft 479 kts 323°
2026-05-06 20:45 56.02753 36.26816 32227 ft 475 kts 322°
2026-05-06 20:45 56.05409 36.23689 33072 ft 471 kts 323°
2026-05-06 20:46 56.08159 36.20444 33895 ft 468 kts 323°
2026-05-06 20:46 56.10788 36.17287 34643 ft 465 kts 320°
2026-05-06 20:46 56.13227 36.13569 35340 ft 457 kts 311°
2026-05-06 20:46 56.15240 36.09446 35898 ft 451 kts 303°
2026-05-06 20:47 56.16921 36.04781 36413 ft 446 kts 295°
2026-05-06 20:47 56.18323 35.99756 36959 ft 442 kts 293°
2026-05-06 20:47 56.19790 35.94991 37516 ft 444 kts 300°
2026-05-06 20:47 56.21655 35.90539 37921 ft 448 kts 308°
2026-05-06 20:48 56.23886 35.86578 38305 ft 452 kts 316°
2026-05-06 20:48 56.26361 35.83129 38692 ft 454 kts 320°
2026-05-06 20:48 56.28912 35.79731 39074 ft 453 kts 320°
2026-05-06 20:48 56.31415 35.76399 39440 ft 452 kts 320°
2026-05-06 20:49 56.33960 35.73003 39781 ft 451 kts 320°
2026-05-06 20:49 56.36459 35.69661 39952 ft 453 kts 320°
2026-05-06 20:49 56.38992 35.66265 39950 ft 453 kts 320°
2026-05-06 20:50 56.44016 35.59518 39943 ft 450 kts 320°
2026-05-06 20:50 56.49034 35.52761 39950 ft 452 kts 320°
2026-05-06 20:51 56.54035 35.46004 39949 ft 450 kts 320°
2026-05-06 20:51 56.59031 35.39220 39946 ft 452 kts 320°
2026-05-06 20:52 56.64043 35.32310 39957 ft 452 kts 319°
2026-05-06 20:52 56.69041 35.25392 39954 ft 453 kts 319°
2026-05-06 20:53 56.74037 35.18459 39943 ft 452 kts 319°
2026-05-06 20:53 56.78986 35.11566 39944 ft 452 kts 318°
2026-05-06 20:54 56.83978 35.04594 39941 ft 452 kts 319°
2026-05-06 20:54 56.88964 34.97602 39940 ft 454 kts 319°
2026-05-06 20:55 56.94044 34.90828 39947 ft 455 kts 323°
2026-05-06 20:55 56.99363 34.84591 39934 ft 457 kts 323°
2026-05-06 20:56 57.04693 34.78274 39927 ft 457 kts 323°
2026-05-06 20:56 57.10008 34.71920 39939 ft 456 kts 323°
2026-05-06 20:57 57.15301 34.65553 39932 ft 455 kts 323°
2026-05-06 20:57 57.20510 34.59256 39933 ft 454 kts 322°
2026-05-06 20:58 57.25746 34.52900 39923 ft 453 kts 322°
2026-05-06 20:58 57.31006 34.46489 39927 ft 453 kts 322°
2026-05-06 20:59 57.36257 34.40066 39935 ft 454 kts 322°
2026-05-06 20:59 57.41508 34.33619 39934 ft 453 kts 321°
2026-05-06 21:00 57.46764 34.27143 39950 ft 453 kts 321°
2026-05-06 21:00 57.51867 34.20830 39926 ft 453 kts 321°
2026-05-06 21:01 57.57062 34.14388 39945 ft 453 kts 321°
2026-05-06 21:01 57.62289 34.07882 39942 ft 452 kts 321°
2026-05-06 21:02 57.67531 34.01333 39926 ft 454 kts 321°
2026-05-06 21:02 57.72733 33.94814 39959 ft 452 kts 321°
2026-05-06 21:03 57.77936 33.88267 39950 ft 451 kts 321°
2026-05-06 21:03 57.83114 33.81729 39959 ft 451 kts 321°
2026-05-06 21:04 57.88233 33.74961 39957 ft 448 kts 317°
2026-05-06 21:04 57.93039 33.67698 39966 ft 446 kts 316°
2026-05-06 21:05 57.97855 33.60370 39965 ft 447 kts 316°
2026-05-06 21:05 58.02697 33.52978 39961 ft 448 kts 316°
2026-05-06 21:06 58.07514 33.45601 39959 ft 447 kts 316°
2026-05-06 21:06 58.12329 33.38199 39956 ft 447 kts 316°
2026-05-06 21:07 58.17022 33.30961 39967 ft 448 kts 315°
2026-05-06 21:07 58.21743 33.23658 39928 ft 447 kts 315°
2026-05-06 21:08 58.26524 33.16243 39747 ft 439 kts 315°
2026-05-06 21:08 58.28868 33.12596 38841 ft 443 kts 315°
2026-05-06 21:08 58.31238 33.08896 37811 ft 449 kts 314°
2026-05-06 21:08 58.33640 33.05143 36889 ft 452 kts 314°
2026-05-06 21:09 58.36063 33.01350 36175 ft 454 kts 313°
2026-05-06 21:09 58.38502 32.97528 35354 ft 458 kts 313°
2026-05-06 21:09 58.40934 32.93706 34409 ft 463 kts 312°
2026-05-06 21:09 58.43415 32.89800 33353 ft 467 kts 312°
2026-05-06 21:10 58.45928 32.85839 32358 ft 468 kts 313°
2026-05-06 21:10 58.48426 32.81894 31390 ft 470 kts 313°
2026-05-06 21:10 58.50906 32.77972 30476 ft 469 kts 313°
2026-05-06 21:10 58.53391 32.74040 29926 ft 461 kts 313°
2026-05-06 21:11 58.55830 32.70175 29406 ft 452 kts 313°
2026-05-06 21:11 58.58226 32.66365 28832 ft 445 kts 313°
2026-05-06 21:11 58.60563 32.62643 28238 ft 439 kts 313°
2026-05-06 21:11 58.62894 32.58923 27651 ft 433 kts 313°
2026-05-06 21:12 58.65171 32.55281 27071 ft 427 kts 313°
2026-05-06 21:12 58.67438 32.51649 26475 ft 422 kts 313°
2026-05-06 21:12 58.69666 32.48073 25892 ft 417 kts 313°
2026-05-06 21:12 58.71867 32.44532 25300 ft 412 kts 313°
2026-05-06 21:13 58.74032 32.41044 24716 ft 406 kts 313°
2026-05-06 21:13 58.76174 32.37589 24149 ft 401 kts 313°
2026-05-06 21:13 58.78281 32.34182 23572 ft 397 kts 312°
2026-05-06 21:13 58.80371 32.30796 23004 ft 393 kts 312°
2026-05-06 21:14 58.82458 32.27410 22412 ft 390 kts 312°
2026-05-06 21:14 58.84516 32.24066 21828 ft 387 kts 312°
2026-05-06 21:14 58.86560 32.20739 21244 ft 385 kts 313°
2026-05-06 21:14 58.88610 32.17398 20643 ft 382 kts 312°
2026-05-06 21:15 58.90602 32.14144 20061 ft 380 kts 313°
2026-05-06 21:15 58.92617 32.10850 19458 ft 377 kts 313°
2026-05-06 21:15 58.94601 32.07602 18874 ft 375 kts 313°
2026-05-06 21:15 58.96595 32.04332 18277 ft 373 kts 313°
2026-05-06 21:16 58.98539 32.01139 17698 ft 371 kts 313°
2026-05-06 21:16 59.00493 31.97923 17103 ft 369 kts 313°
2026-05-06 21:16 59.02431 31.94730 16509 ft 368 kts 312°
2026-05-06 21:16 59.04390 31.91497 15901 ft 366 kts 313°
2026-05-06 21:17 59.06314 31.88317 15309 ft 365 kts 312°
2026-05-06 21:17 59.08227 31.85152 14709 ft 364 kts 312°
2026-05-06 21:17 59.10140 31.81980 14113 ft 362 kts 313°
2026-05-06 21:17 59.12019 31.78727 13521 ft 358 kts 310°
2026-05-06 21:18 59.13713 31.75478 12946 ft 356 kts 310°
2026-05-06 21:18 59.15471 31.72084 12341 ft 354 kts 311°
2026-05-06 21:18 59.17177 31.68809 11745 ft 352 kts 312°
2026-05-06 21:18 59.18917 31.65479 11144 ft 350 kts 313°
2026-05-06 21:19 59.20636 31.62202 10622 ft 345 kts 314°
2026-05-06 21:19 59.22281 31.58949 10546 ft 327 kts 312°
2026-05-06 21:19 59.23833 31.55830 10546 ft 329 kts 312°
2026-05-06 21:19 59.25440 31.52589 10549 ft 337 kts 312°
2026-05-06 21:20 59.27077 31.49284 10548 ft 339 kts 312°
2026-05-06 21:20 59.28715 31.45972 10546 ft 340 kts 312°
2026-05-06 21:20 59.30338 31.42687 10491 ft 336 kts 313°
2026-05-06 21:20 59.31907 31.39510 10464 ft 318 kts 313°
2026-05-06 21:21 59.33413 31.36458 10450 ft 301 kts 313°
2026-05-06 21:21 59.34832 31.33578 10380 ft 288 kts 311°
2026-05-06 21:21 59.36181 31.30834 10260 ft 278 kts 311°
2026-05-06 21:21 59.37505 31.28138 10127 ft 269 kts 311°
2026-05-06 21:22 59.38672 31.25760 10011 ft 261 kts 311°
2026-05-06 21:22 59.39926 31.23197 9728 ft 260 kts 312°
2026-05-06 21:22 59.41177 31.20639 9373 ft 262 kts 312°
2026-05-06 21:22 59.42444 31.18044 9036 ft 262 kts 312°
2026-05-06 21:23 59.43694 31.15481 8720 ft 262 kts 313°
2026-05-06 21:23 59.44962 31.12879 8408 ft 262 kts 313°
2026-05-06 21:23 59.46214 31.10308 8097 ft 262 kts 313°
2026-05-06 21:23 59.47465 31.07735 7787 ft 261 kts 313°
2026-05-06 21:24 59.48710 31.05170 7478 ft 261 kts 314°
2026-05-06 21:24 59.49970 31.02572 7166 ft 261 kts 314°
2026-05-06 21:24 59.51225 30.99981 6861 ft 260 kts 314°
2026-05-06 21:24 59.52469 30.97410 6559 ft 260 kts 314°
2026-05-06 21:25 59.53702 30.94859 6258 ft 260 kts 315°
2026-05-06 21:25 59.54945 30.92284 5954 ft 259 kts 315°
2026-05-06 21:25 59.56179 30.89726 5653 ft 259 kts 315°
2026-05-06 21:25 59.57413 30.87166 5359 ft 258 kts 315°
2026-05-06 21:26 59.58645 30.84604 5066 ft 258 kts 315°
2026-05-06 21:26 59.59878 30.82040 4770 ft 257 kts 315°
2026-05-06 21:26 59.61111 30.79472 4471 ft 257 kts 315°
2026-05-06 21:26 59.62326 30.76946 4189 ft 257 kts 316°
2026-05-06 21:27 59.63554 30.74382 3907 ft 256 kts 315°
2026-05-06 21:27 59.64771 30.71833 3621 ft 255 kts 316°
2026-05-06 21:27 59.65981 30.69301 3335 ft 255 kts 316°
2026-05-06 21:27 59.67380 30.67201 3046 ft 250 kts 333°
2026-05-06 21:28 59.68916 30.65621 2796 ft 248 kts 336°
2026-05-06 21:28 59.70431 30.64128 2733 ft 238 kts 336°
2026-05-06 21:28 59.71864 30.62704 2694 ft 229 kts 336°
2026-05-06 21:28 59.73265 30.61312 2631 ft 221 kts 336°
2026-05-06 21:29 59.74609 30.59970 2558 ft 214 kts 334°
2026-05-06 21:29 59.75782 30.58250 2476 ft 210 kts 311°
2026-05-06 21:29 59.76358 30.55659 2448 ft 200 kts 287°
2026-05-06 21:29 59.76674 30.53045 2413 ft 191 kts 288°
2026-05-06 21:30 59.77044 30.50523 2174 ft 191 kts 290°
2026-05-06 21:30 59.77436 30.48009 1931 ft 193 kts 290°
2026-05-06 21:30 59.77826 30.45436 1678 ft 193 kts 290°
2026-05-06 21:30 59.78205 30.42935 1426 ft 187 kts 290°
2026-05-06 21:31 59.78562 30.40581 1191 ft 172 kts 289°
2026-05-06 21:31 59.78898 30.38348 969 ft 163 kts 289°
2026-05-06 21:31 59.79212 30.36269 748 ft 153 kts 289°
2026-05-06 21:31 59.79499 30.34378 521 ft 136 kts 287°
2026-05-06 21:32 59.79748 30.32700 331 ft 132 kts 288°
2026-05-06 21:32 59.80230 30.29477 93 ft 114 kts 287°
2026-05-06 21:32 59.80410 30.28288 92 ft 70 kts 287°
2026-05-06 21:33 59.80430 30.27755 92 ft 28 kts 252°
2026-05-06 21:33 59.80372 30.27395 92 ft 27 kts 252°